| time (UTC) | temp F | wind direction | speed knots | gust knots | rain 1hr in | rain 24hr in | rain mn in | humidity % | barometer mb |
| 20260506031553 | 71 | 314 | 1.7 | 10.4 | 0.00 | 0.00 | 0.00 | 45 | 1008.2 |
| 20260506030051 | 71 | 240 | 2.6 | 6.1 | 0.00 | 0.00 | 0.00 | 45 | 1008.3 |
| 20260506024550 | 72 | 323 | 1.7 | 7.0 | 0.00 | 0.00 | 0.00 | 45 | 1008.3 |
| 20260506023108 | 71 | 290 | 1.7 | 5.2 | 0.00 | 0.00 | 0.00 | 46 | 1008.3 |
| 20260506021554 | 72 | 250 | 1.7 | 6.1 | 0.00 | 0.00 | 0.00 | 45 | 1008.3 |
| 20260506020052 | 72 | 121 | 2.6 | 8.7 | 0.00 | 0.00 | 0.00 | 45 | 1008.3 |
| 20260506014553 | 71 | 224 | 1.7 | 7.8 | 0.00 | 0.00 | 0.00 | 46 | 1008.3 |
| 20260506013055 | 71 | 224 | 0.9 | 6.1 | 0.00 | 0.00 | 0.00 | 47 | 1008.1 |
| 20260506011614 | 71 | 214 | 0.9 | 3.5 | 0.00 | 0.00 | 0.00 | 46 | 1007.8 |
| 20260506010101 | 72 | 0 | 0.0 | 2.6 | 0.00 | 0.00 | 0.00 | 44 | 1007.7 |
| 20260506004632 | 72 | 273 | 0.9 | 7.0 | 0.00 | 0.00 | 0.00 | 42 | 1007.5 |
| 20260506003111 | 72 | 145 | 0.0 | 4.3 | 0.00 | 0.00 | 0.00 | 45 | 1007.5 |
| 20260506001554 | 72 | 300 | 0.9 | 6.1 | 0.00 | 0.00 | 0.00 | 42 | 1007.2 |
| 20260506000059 | 72 | 314 | 2.6 | 9.6 | 0.00 | 0.00 | 0.00 | 43 | 1007.1 |
| 20260505234637 | 71 | 325 | 1.7 | 3.5 | 0.00 | 0.00 | 0.00 | 47 | 1007.0 |
| 20260505233102 | 71 | 0 | 0.0 | 2.6 | 0.00 | 0.00 | 0.00 | 45 | 1006.8 |
| 20260505231551 | 72 | 211 | 0.9 | 2.6 | 0.00 | 0.00 | 0.00 | 45 | 1006.7 |
| 20260505230053 | 73 | 293 | 2.6 | 5.2 | 0.00 | 0.00 | 0.00 | 41 | 1006.5 |
| 20260505224554 | 75 | 319 | 3.5 | 4.3 | 0.00 | 0.00 | 0.00 | 37 | 1006.2 |
| 20260505223051 | 75 | 229 | 2.6 | 7.8 | 0.00 | 0.00 | 0.00 | 35 | 1005.9 |
| 20260505221554 | 76 | 102 | 1.7 | 7.8 | 0.00 | 0.00 | 0.00 | 34 | 1006.0 |
| 20260505214601 | 77 | 297 | 4.3 | 11.3 | 0.00 | 0.00 | 0.00 | 32 | 1005.7 |
| 20260505213054 | 77 | 245 | 3.5 | 9.6 | 0.00 | 0.00 | 0.00 | 32 | 1005.4 |
| 20260505211554 | 78 | 211 | 1.7 | 14.8 | 0.00 | 0.00 | 0.00 | 32 | 1005.3 |
| 20260505210050 | 78 | 287 | 4.3 | 12.2 | 0.00 | 0.00 | 0.00 | 32 | 1005.0 |
| 20260505204549 | 79 | 193 | 4.3 | 9.6 | 0.00 | 0.00 | 0.00 | 31 | 1005.1 |
| 20260505203051 | 80 | 347 | 4.3 | 10.4 | 0.00 | 0.00 | 0.00 | 31 | 1005.0 |
| 20260505201550 | 79 | 232 | 4.3 | 16.5 | 0.00 | 0.00 | 0.00 | 31 | 1005.0 |
| 20260505200056 | 79 | 289 | 4.3 | 10.4 | 0.00 | 0.00 | 0.00 | 34 | 1005.2 |
| 20260505194554 | 78 | 205 | 4.3 | 13.9 | 0.00 | 0.00 | 0.00 | 34 | 1005.2 |
| 20260505193055 | 79 | 71 | 5.2 | 16.5 | 0.00 | 0.00 | 0.00 | 33 | 1005.3 |
| 20260505191557 | 79 | 212 | 6.1 | 15.6 | 0.00 | 0.00 | 0.00 | 32 | 1005.4 |
| 20260505190053 | 78 | 300 | 7.0 | 17.4 | 0.00 | 0.00 | 0.00 | 32 | 1005.6 |
| 20260505184549 | 79 | 271 | 7.8 | 19.1 | 0.00 | 0.00 | 0.00 | 32 | 1005.9 |
| 20260505183053 | 79 | 295 | 6.1 | 20.0 | 0.00 | 0.00 | 0.00 | 33 | 1005.9 |
| 20260505181550 | 78 | 287 | 4.3 | 24.3 | 0.00 | 0.00 | 0.00 | 35 | 1006.5 |
| 20260505174609 | 78 | 256 | 7.0 | 18.2 | 0.00 | 0.00 | 0.00 | 35 | 1006.4 |
| 20260505173053 | 78 | 283 | 3.5 | 12.2 | 0.00 | 0.00 | 0.00 | 38 | 1006.4 |
| 20260505172013 | 78 | 252 | 6.1 | 15.6 | 0.00 | 0.00 | 0.00 | 37 | 1006.5 |
| 20260505153058 | 73 | 209 | 2.6 | 11.3 | 0.00 | 0.00 | 0.00 | 46 | 1007.8 |
| 20260505151554 | 74 | 235 | 0.9 | 5.2 | 0.00 | 0.00 | 0.00 | 45 | 1007.6 |
| 20260505124552 | 64 | 116 | 0.0 | 4.3 | 0.00 | 0.00 | 0.00 | 64 | 1008.5 |
| 20260505123107 | 61 | 218 | 0.9 | 2.6 | 0.00 | 0.00 | 0.00 | 67 | 1008.6 |
| 20260505121601 | 57 | 0 | 0.0 | 0.0 | 0.00 | 0.00 | 0.00 | 68 | 1008.8 |
| 20260505120058 | 54 | 0 | 0.0 | 2.6 | 0.00 | 0.00 | 0.00 | 58 | 1008.8 |
| 20260505114614 | 51 | 283 | 0.0 | 1.7 | 0.00 | 0.00 | 0.00 | 40 | 1008.8 |
| 20260505113058 | 50 | 321 | 0.0 | 0.9 | 0.00 | 0.00 | 0.00 | 48 | 1009.0 |
| 20260505111605 | 49 | 335 | 0.9 | 2.6 | 0.00 | 0.00 | 0.00 | 41 | 1008.9 |
| 20260505101548 | 46 | 57 | 1.7 | 3.5 | 0.00 | 0.00 | 0.00 | 31 | 1008.4 |
| 20260505100051 | 46 | 0 | 0.0 | 0.9 | 0.00 | 0.00 | 0.00 | 46 | 1008.5 |
| 20260505094550 | 47 | 0 | 0.0 | 0.0 | 0.00 | 0.00 | 0.00 | 53 | 1008.5 |
| 20260505093050 | 47 | 183 | 0.9 | 1.7 | 0.00 | 0.00 | 0.00 | 57 | 1008.2 |
| 20260505091549 | 48 | 22 | 0.0 | 0.9 | 0.00 | 0.00 | 0.00 | 64 | 1008.0 |
| 20260505090058 | 48 | 0 | 0.9 | 3.5 | 0.00 | 0.00 | 0.00 | 67 | 1008.1 |
| 20260505084557 | 48 | 199 | 0.9 | 3.5 | 0.00 | 0.00 | 0.00 | 68 | 1008.1 |
| 20260505083118 | 49 | 0 | 0.0 | 0.9 | 0.00 | 0.00 | 0.00 | 72 | 1008.1 |
| 20260505081557 | 50 | 20 | 0.0 | 4.3 | 0.00 | 0.00 | 0.00 | 72 | 1008.2 |
| 20260505080056 | 50 | 325 | 1.7 | 4.3 | 0.00 | 0.00 | 0.00 | 71 | 1008.4 |
| 20260505074552 | 48 | 0 | 0.0 | 3.5 | 0.00 | 0.00 | 0.00 | 68 | 1008.2 |
| 20260505073107 | 49 | 0 | 0.0 | 2.6 | 0.00 | 0.00 | 0.00 | 70 | 1008.2 |
| 20260505071552 | 49 | 321 | 0.0 | 0.9 | 0.00 | 0.00 | 0.00 | 72 | 1008.0 |
| 20260505070053 | 49 | 0 | 0.0 | 2.6 | 0.00 | 0.00 | 0.00 | 73 | 1008.1 |
| 20260505064601 | 50 | 0 | 0.0 | 0.9 | 0.00 | 0.00 | 0.00 | 73 | 1008.0 |
| 20260505063054 | 50 | 59 | 0.9 | 4.3 | 0.00 | 0.00 | 0.00 | 73 | 1008.0 |
| 20260505061554 | 51 | 0 | 0.0 | 1.7 | 0.00 | 0.00 | 0.00 | 72 | 1008.2 |
| 20260505054604 | 53 | 0 | 0.0 | 0.0 | 0.00 | 0.00 | 0.00 | 67 | 1008.4 |
| 20260505053109 | 56 | 0 | 0.0 | 2.6 | 0.00 | 0.00 | 0.00 | 60 | 1008.5 |
| 20260505051553 | 57 | 101 | 0.0 | 1.7 | 0.00 | 0.00 | 0.00 | 58 | 1008.6 |
| 20260505041612 | 57 | 58 | 1.7 | 4.3 | 0.00 | 0.00 | 0.00 | 58 | 1008.8 |
| 20260505040053 | 54 | 41 | 1.7 | 6.1 | 0.00 | 0.00 | 0.00 | 66 | 1008.7 |
| 20260505034549 | 54 | 0 | 1.7 | 2.6 | 0.00 | 0.00 | 0.00 | 66 | 1008.8 |
| 20260505033055 | 53 | 145 | 0.0 | 1.7 | 0.00 | 0.00 | 0.00 | 67 | 1008.8 |